This is the latest recevied weather packets stored in our database for station/object F4FEB-14. If no packets are shown the sender has not sent any weather packets the latest 10 day(s).
| Time | Temp. | Humidity | Pressure | Rain* | Wind** | Luminosity | Snow |
|---|---|---|---|---|---|---|---|
| 1777771687 | 10.56° C | 100% | 1017.7 hPa | 0 mm | - | - | - |
| 1777771385 | 10.56° C | 100% | 1017.7 hPa | 0 mm | - | - | - |
| 1777770782 | 10.56° C | 100% | 1017.8 hPa | 0 mm | - | - | - |
| 1777770481 | 11.11° C | 100% | 1017.9 hPa | 0 mm | - | - | - |
| 1777770181 | 11.11° C | 100% | 1018 hPa | 0 mm | - | - | - |
| 1777769879 | 11.11° C | 100% | 1018 hPa | 0 mm | - | - | - |
| 1777769578 | 11.11° C | 100% | 1018 hPa | 0 mm | - | - | - |
| 1777769277 | 11.11° C | 100% | 1018.1 hPa | 0 mm | - | - | - |
| 1777768976 | 11.67° C | 100% | 1018.2 hPa | 0 mm | - | - | - |
| 1777768675 | 11.67° C | 100% | 1018.2 hPa | 0 mm | - | - | - |
| 1777768373 | 11.67° C | 100% | 1018.3 hPa | 0 mm | - | - | - |
| 1777768072 | 11.67° C | 100% | 1018.3 hPa | 0 mm | - | - | - |
| 1777767771 | 11.67° C | 100% | 1018.3 hPa | 0 mm | - | - | - |
| 1777767471 | 12.22° C | 100% | 1018.5 hPa | 0 mm | - | - | - |
| 1777767168 | 12.22° C | 100% | 1018.3 hPa | 0 mm | - | - | - |
| 1777766865 | 11.67° C | 100% | 1018.4 hPa | 0 mm | - | - | - |
| 1777766564 | 11.11° C | 100% | 1018.6 hPa | 0 mm | - | - | - |
| 1777765358 | 11.11° C | 100% | 1018.6 hPa | 0 mm | - | - | - |
| 1777765057 | 11.11° C | 100% | 1018.7 hPa | 0 mm | - | - | - |
| 1777764756 | 11.11° C | 100% | 1018.7 hPa | 0 mm | - | - | - |
| 1777764456 | 11.11° C | 100% | 1018.8 hPa | 0 mm | - | - | - |
| 1777764154 | 11.11° C | 100% | 1018.9 hPa | 0 mm | - | - | - |
| 1777763551 | 11.67° C | 100% | 1019 hPa | 0 mm | - | - | - |
| 1777763250 | 11.67° C | 100% | 1018.9 hPa | 0 mm | - | - | - |
| 1777762948 | 11.67° C | 100% | 1019 hPa | 0 mm | - | - | - |
* Rain latest hour (hover to see other rain measurements)
** Current wind speed in m/s (hover to see current wind gust speed)